| time (UTC) | temp F | wind direction | speed MPH | gust MPH | rain 1hr in | rain 24hr in | rain mn in | humidity % | barometer mb |
| 20260905200020 | 77 | 14 | 4.0 | 11.0 | 0.00 | 0.00 | 0.00 | 65 | 1024.6 |
| 20260905190409 | 77 | 60 | 4.0 | 10.0 | 0.00 | 0.00 | 0.00 | 69 | 1024.7 |
| 20260905190022 | 77 | 96 | 4.0 | 11.0 | 0.00 | 0.00 | 0.00 | 69 | 1024.7 |
| 20260905183058 | 77 | 15 | 2.0 | 9.0 | 0.00 | 0.00 | 0.00 | 70 | 1024.8 |
| 20260905180425 | 77 | 350 | 5.0 | 10.0 | 0.00 | 0.00 | 0.00 | 70 | 1024.8 |
| 20260905173112 | 78 | 360 | 2.0 | 9.0 | 0.00 | 0.01 | 0.00 | 75 | 1024.8 |
| 20260905173030 | 78 | 360 | 2.0 | 9.0 | 0.00 | 0.01 | 0.00 | 75 | 1024.8 |
| 20260905170407 | 77 | 49 | 4.0 | 9.0 | 0.00 | 0.01 | 0.00 | 73 | 1025.0 |
| 20260905170108 | 77 | 350 | 3.0 | 9.0 | 0.00 | 0.01 | 0.00 | 72 | 1024.9 |
| 20260905163032 | 77 | 35 | 1.0 | 7.0 | 0.00 | 0.06 | 0.00 | 76 | 1025.2 |
| 20260905160329 | 76 | 128 | 2.0 | 5.0 | 0.00 | 0.06 | 0.00 | 80 | 1025.3 |
| 20260905160104 | 76 | 96 | 2.0 | 5.0 | 0.00 | 0.06 | 0.00 | 81 | 1025.4 |
| 20260905153106 | 75 | 342 | 2.0 | 8.0 | 0.00 | 0.10 | 0.00 | 82 | 1025.2 |
| 20260905150318 | 72 | 59 | 2.0 | 6.0 | 0.00 | 0.10 | 0.00 | 91 | 1024.9 |
| 20260905150020 | 72 | 78 | 2.0 | 6.0 | 0.00 | 0.10 | 0.00 | 91 | 1024.8 |
| 20260905143040 | 72 | 98 | 3.0 | 4.0 | 0.00 | 0.19 | 0.00 | 93 | 1024.6 |
| 20260905140321 | 71 | 126 | 1.0 | 5.0 | 0.00 | 0.19 | 0.00 | 95 | 1024.4 |
| 20260905140034 | 71 | 161 | 2.0 | 6.0 | 0.00 | 0.19 | 0.00 | 95 | 1024.5 |
| 20260905133018 | 71 | 103 | 2.0 | 4.0 | 0.00 | 0.19 | 0.00 | 100 | 1024.4 |
| 20260905130335 | 69 | 142 | 0.0 | 3.0 | 0.00 | 0.19 | 0.00 | 100 | 1024.5 |
| 20260905130032 | 69 | 142 | 1.0 | 3.0 | 0.00 | 0.19 | 0.00 | 100 | 1024.6 |
| 20260905123030 | 69 | 142 | 0.0 | 0.0 | 0.00 | 0.19 | 0.00 | 100 | 1024.6 |
| 20260905120325 | 68 | 142 | 0.0 | 0.0 | 0.00 | 0.19 | 0.00 | 100 | 1024.4 |
| 20260905120019 | 68 | 142 | 0.0 | 0.0 | 0.00 | 0.19 | 0.00 | 100 | 1024.5 |
| 20260905113017 | 67 | 142 | 0.0 | 0.0 | 0.00 | 0.19 | 0.00 | 100 | 1024.5 |
| 20260905110334 | 67 | 142 | 0.0 | 0.0 | 0.00 | 0.19 | 0.00 | 100 | 1024.6 |
| 20260905110032 | 67 | 142 | 0.0 | 0.0 | 0.00 | 0.19 | 0.00 | 100 | 1024.7 |
| 20260905103032 | 67 | 142 | 0.0 | 0.0 | 0.00 | 0.19 | 0.00 | 100 | 1024.6 |
| 20260905100333 | 67 | 142 | 0.0 | 1.0 | 0.00 | 0.19 | 0.00 | 100 | 1024.2 |
| 20260905100028 | 67 | 142 | 0.0 | 1.0 | 0.00 | 0.19 | 0.00 | 100 | 1024.1 |
| 20260905093045 | 68 | 144 | 1.0 | 2.0 | 0.00 | 0.19 | 0.00 | 100 | 1023.8 |
| 20260905090343 | 68 | 130 | 2.0 | 5.0 | 0.00 | 0.19 | 0.00 | 100 | 1023.6 |
| 20260905090047 | 68 | 134 | 2.0 | 5.0 | 0.00 | 0.19 | 0.00 | 100 | 1023.6 |
| 20260905083026 | 68 | 88 | 0.0 | 3.0 | 0.00 | 0.19 | 0.00 | 100 | 1023.3 |
| 20260905080310 | 66 | 327 | 0.0 | 0.0 | 0.00 | 0.19 | 0.00 | 100 | 1023.6 |
| 20260905080130 | 66 | 327 | 0.0 | 0.0 | 0.00 | 0.19 | 0.00 | 100 | 1023.5 |
| 20260905073011 | 66 | 327 | 0.0 | 0.0 | 0.00 | 0.19 | 0.00 | 100 | 1023.4 |
| 20260905070312 | 67 | 327 | 0.0 | 0.0 | 0.00 | 0.19 | 0.00 | 100 | 1023.1 |
| 20260905070034 | 67 | 327 | 0.0 | 0.0 | 0.00 | 0.19 | 0.00 | 100 | 1023.2 |
| 20260905063033 | 67 | 327 | 0.0 | 0.0 | 0.00 | 0.20 | 0.00 | 100 | 1023.8 |
| 20260905060311 | 68 | 327 | 0.0 | 0.0 | 0.00 | 0.20 | 0.00 | 100 | 1024.1 |
| 20260905060055 | 68 | 327 | 0.0 | 0.0 | 0.00 | 0.20 | 0.00 | 100 | 1024.1 |
| 20260905053011 | 67 | 327 | 0.0 | 0.0 | 0.00 | 0.20 | 0.00 | 100 | 1024.5 |
| 20260905050335 | 67 | 327 | 0.0 | 0.0 | 0.00 | 0.20 | 0.00 | 100 | 1024.6 |
| 20260905050051 | 67 | 327 | 0.0 | 0.0 | 0.00 | 0.20 | 0.00 | 100 | 1024.6 |
| 20260905043011 | 67 | 327 | 0.0 | 0.0 | 0.00 | 0.20 | 0.00 | 100 | 1024.7 |
| 20260905040313 | 67 | 327 | 0.0 | 0.0 | 0.00 | 0.20 | 0.00 | 100 | 1024.6 |
| 20260905040014 | 67 | 327 | 0.0 | 0.0 | 0.00 | 0.20 | 0.00 | 99 | 1024.6 |
| 20260905033105 | 68 | 327 | 0.0 | 0.0 | 0.00 | 0.20 | 0.20 | 99 | 1024.5 |
| 20260905030351 | 69 | 327 | 0.0 | 1.0 | 0.00 | 0.20 | 0.20 | 99 | 1024.5 |
| 20260905030027 | 69 | 327 | 0.0 | 1.0 | 0.00 | 0.20 | 0.20 | 99 | 1024.4 |
| 20260905023009 | 70 | 327 | 0.0 | 1.0 | 0.00 | 0.20 | 0.20 | 99 | 1024.7 |
| 20260905020349 | 70 | 327 | 0.0 | 0.0 | 0.00 | 0.20 | 0.20 | 98 | 1024.8 |
| 20260905020025 | 70 | 327 | 0.0 | 3.0 | 0.00 | 0.20 | 0.20 | 98 | 1024.8 |
| 20260905013009 | 70 | 262 | 0.0 | 0.0 | 0.00 | 0.20 | 0.20 | 98 | 1024.6 |
| 20260905010359 | 71 | 262 | 0.0 | 1.0 | 0.00 | 0.20 | 0.20 | 98 | 1024.5 |
| 20260905010316 | 71 | 262 | 0.0 | 1.0 | 0.00 | 0.20 | 0.20 | 98 | 1024.5 |
| 20260905010029 | 71 | 262 | 0.0 | 1.0 | 0.00 | 0.20 | 0.20 | 98 | 1024.6 |
| 20260905003036 | 71 | 262 | 0.0 | 2.0 | 0.00 | 0.21 | 0.20 | 97 | 1024.6 |
| 20260905000402 | 72 | 271 | 0.0 | 0.0 | 0.00 | 0.21 | 0.20 | 96 | 1024.7 |
| 20260905000012 | 72 | 271 | 0.0 | 0.0 | 0.00 | 0.21 | 0.20 | 96 | 1024.7 |
| 20260904233023 | 73 | 271 | 0.0 | 1.0 | 0.00 | 0.46 | 0.20 | 94 | 1024.9 |
| 20260904230346 | 74 | 246 | 1.0 | 4.0 | 0.00 | 0.46 | 0.20 | 92 | 1024.8 |
| 20260904230021 | 75 | 332 | 1.0 | 3.0 | 0.00 | 0.46 | 0.20 | 92 | 1024.8 |
| 20260904223111 | 75 | 41 | 1.0 | 6.0 | 0.00 | 1.03 | 0.20 | 92 | 1024.5 |
| 20260904220329 | 76 | 355 | 2.0 | 4.0 | 0.00 | 1.03 | 0.20 | 91 | 1024.2 |
| 20260904220113 | 77 | 28 | 2.0 | 4.0 | 0.00 | 1.03 | 0.20 | 91 | 1024.2 |
| 20260904213037 | 77 | 34 | 1.0 | 4.0 | 0.00 | 1.03 | 0.20 | 89 | 1023.5 |
| 20260904210317 | 77 | 136 | 0.0 | 3.0 | 0.00 | 1.03 | 0.20 | 88 | 1023.0 |
| 20260904210035 | 77 | 136 | 0.0 | 3.0 | 0.00 | 1.03 | 0.20 | 88 | 1023.0 |
| 20260904203059 | 77 | 321 | 1.0 | 4.0 | 0.00 | 1.03 | 0.20 | 88 | 1023.5 |
| 20260904200337 | 77 | 333 | 3.0 | 6.0 | 0.00 | 1.03 | 0.20 | 91 | 1023.8 |